Time,TemperatureF,DewpointF,PressureIn,WindDirection,WindDirectionDegrees,WindSpeedMPH,WindSpeedGustMPH,Humidity,HourlyPrecipIn,Conditions,Clouds,dailyrainin,SoftwareType,DateUTC
2013-04-22 00:02:00,42.2,32.0,30.48,WSW,253,0.0,1.0,67,0.00,,,0.00,weatherlink.com 1.10,2013-04-22 04:02:00,
2013-04-22 00:18:00,41.9,32.0,30.48,North,10,0.0,2.0,67,0.00,,,0.00,weatherlink.com 1.10,2013-04-22 04:18:00,
2013-04-22 00:33:00,41.5,32.0,30.48,NNW,329,0.0,1.0,68,0.00,,,0.00,weatherlink.com 1.10,2013-04-22 04:33:00,
2013-04-22 00:48:00,41.0,32.0,30.47,SW,218,0.0,2.0,70,0.00,,,0.00,weatherlink.com 1.10,2013-04-22 04:48:00,
2013-04-22 01:03:00,40.8,32.0,30.47,SE,143,1.0,5.0,72,0.00,,,0.00,weatherlink.com 1.10,2013-04-22 05:03:00,
2013-04-22 01:18:00,40.4,33.0,30.47,NE,46,2.0,3.0,74,0.00,,,0.00,weatherlink.com 1.10,2013-04-22 05:18:00,
2013-04-22 01:33:00,40.0,33.0,30.47,South,190,0.0,4.0,76,0.00,,,0.00,weatherlink.com 1.10,2013-04-22 05:33:00,
2013-04-22 01:48:00,39.5,33.0,30.46,SW,214,0.0,2.0,77,0.00,,,0.00,weatherlink.com 1.10,2013-04-22 05:48:00,
2013-04-22 02:03:00,39.1,33.0,30.46,South,191,0.0,3.0,78,0.00,,,0.00,weatherlink.com 1.10,2013-04-22 06:03:00,
2013-04-22 02:18:00,38.7,33.0,30.46,SSW,212,0.0,3.0,79,0.00,,,0.00,weatherlink.com 1.10,2013-04-22 06:18:00,
2013-04-22 02:33:00,38.4,33.0,30.45,SW,231,0.0,3.0,80,0.00,,,0.00,weatherlink.com 1.10,2013-04-22 06:33:00,
2013-04-22 02:48:00,38.1,32.0,30.45,SSW,193,1.0,4.0,80,0.00,,,0.00,weatherlink.com 1.10,2013-04-22 06:48:00,
2013-04-22 03:03:00,37.8,32.0,30.45,SSE,166,0.0,3.0,80,0.00,,,0.00,weatherlink.com 1.10,2013-04-22 07:03:00,
2013-04-22 03:18:00,37.5,32.0,30.44,SW,215,0.0,2.0,81,0.00,,,0.00,weatherlink.com 1.10,2013-04-22 07:18:00,
2013-04-22 03:33:00,37.0,32.0,30.44,SSW,208,0.0,3.0,81,0.00,,,0.00,weatherlink.com 1.10,2013-04-22 07:33:00,
2013-04-22 03:48:00,36.6,32.0,30.44,SSE,158,0.0,2.0,82,0.00,,,0.00,weatherlink.com 1.10,2013-04-22 07:48:00,
2013-04-22 04:04:00,36.3,32.0,30.43,SSE,156,0.0,1.0,83,0.00,,,0.00,weatherlink.com 1.10,2013-04-22 08:04:00,
2013-04-22 04:18:00,35.9,31.0,30.43,SW,235,0.0,1.0,83,0.00,,,0.00,weatherlink.com 1.10,2013-04-22 08:18:00,
2013-04-22 04:33:00,35.5,31.0,30.43,South,174,0.0,1.0,84,0.00,,,0.00,weatherlink.com 1.10,2013-04-22 08:33:00,
2013-04-22 04:48:00,35.3,31.0,30.42,South,190,0.0,1.0,85,0.00,,,0.00,weatherlink.com 1.10,2013-04-22 08:48:00,
2013-04-22 05:03:00,35.0,31.0,30.42,SW,221,0.0,1.0,85,0.00,,,0.00,weatherlink.com 1.10,2013-04-22 09:03:00,
2013-04-22 05:18:00,35.0,31.0,30.41,SSE,158,0.0,2.0,85,0.00,,,0.00,weatherlink.com 1.10,2013-04-22 09:18:00,
2013-04-22 05:33:00,35.0,31.0,30.41,WNW,295,1.0,3.0,85,0.00,,,0.00,weatherlink.com 1.10,2013-04-22 09:33:00,
2013-04-22 05:48:00,34.8,31.0,30.41,NW,322,0.0,2.0,85,0.00,,,0.00,weatherlink.com 1.10,2013-04-22 09:48:00,
2013-04-22 06:04:00,34.4,30.0,30.41,South,181,0.0,1.0,85,0.00,,,0.00,weatherlink.com 1.10,2013-04-22 10:04:00,
2013-04-22 06:19:00,34.1,30.0,30.42,WNW,290,0.0,0.0,86,0.00,,,0.00,weatherlink.com 1.10,2013-04-22 10:19:00,
2013-04-22 06:34:00,33.4,30.0,30.42,WNW,290,0.0,0.0,86,0.00,,,0.00,weatherlink.com 1.10,2013-04-22 10:34:00,
2013-04-22 06:49:00,32.7,29.0,30.42,WNW,290,0.0,0.0,87,0.00,,,0.00,weatherlink.com 1.10,2013-04-22 10:49:00,
2013-04-22 07:04:00,32.6,30.0,30.43,WNW,290,0.0,0.0,89,0.00,,,0.00,weatherlink.com 1.10,2013-04-22 11:04:00,
2013-04-22 07:19:00,32.3,30.0,30.42,WNW,290,0.0,0.0,89,0.00,,,0.00,weatherlink.com 1.10,2013-04-22 11:19:00,
2013-04-22 07:35:00,32.4,30.0,30.43,WNW,290,0.0,0.0,90,0.00,,,0.00,weatherlink.com 1.10,2013-04-22 11:35:00,
2013-04-22 07:49:00,32.9,30.0,30.43,WNW,288,0.0,0.0,90,0.00,,,0.00,weatherlink.com 1.10,2013-04-22 11:49:00,
2013-04-22 08:04:00,34.1,31.0,30.42,SW,217,0.0,1.0,88,0.00,,,0.00,weatherlink.com 1.10,2013-04-22 12:04:00,
2013-04-22 08:19:00,35.6,32.0,30.42,West,264,0.0,1.0,85,0.00,,,0.00,weatherlink.com 1.10,2013-04-22 12:19:00,
2013-04-22 08:34:00,37.2,32.0,30.42,WSW,246,0.0,2.0,81,0.00,,,0.00,weatherlink.com 1.10,2013-04-22 12:34:00,
2013-04-22 08:49:00,38.7,32.0,30.41,NW,321,0.0,2.0,77,0.00,,,0.00,weatherlink.com 1.10,2013-04-22 12:49:00,
2013-04-22 09:04:00,40.2,33.0,30.41,South,176,1.0,2.0,76,0.00,,,0.00,weatherlink.com 1.10,2013-04-22 13:04:00,
2013-04-22 09:19:00,41.9,33.0,30.41,WSW,240,0.0,3.0,71,0.00,,,0.00,weatherlink.com 1.10,2013-04-22 13:19:00,
2013-04-22 09:34:00,44.0,34.0,30.41,SSE,160,0.0,4.0,67,0.00,,,0.00,weatherlink.com 1.10,2013-04-22 13:34:00,
2013-04-22 09:49:00,46.1,34.0,30.40,South,172,1.0,3.0,62,0.00,,,0.00,weatherlink.com 1.10,2013-04-22 13:49:00,
2013-04-22 10:04:00,48.5,34.0,30.40,SW,215,1.0,2.0,57,0.00,,,0.00,weatherlink.com 1.10,2013-04-22 14:04:00,
2013-04-22 10:19:00,51.6,36.0,30.39,South,191,2.0,3.0,55,0.00,,,0.00,weatherlink.com 1.10,2013-04-22 14:19:00,
2013-04-22 10:34:00,53.8,34.0,30.40,SSE,156,1.0,4.0,48,0.00,,,0.00,weatherlink.com 1.10,2013-04-22 14:34:00,
2013-04-22 10:49:00,55.1,34.0,30.40,South,185,0.0,4.0,46,0.00,,,0.00,weatherlink.com 1.10,2013-04-22 14:49:00,
2013-04-22 11:04:00,56.3,36.0,30.39,West,277,0.0,3.0,46,0.00,,,0.00,weatherlink.com 1.10,2013-04-22 15:04:00,
2013-04-22 11:19:00,58.1,37.0,30.39,SW,226,0.0,3.0,45,0.00,,,0.00,weatherlink.com 1.10,2013-04-22 15:19:00,
2013-04-22 11:34:00,59.3,37.0,30.39,West,271,0.0,3.0,43,0.00,,,0.00,weatherlink.com 1.10,2013-04-22 15:34:00,
2013-04-22 11:49:00,60.1,36.0,30.39,WSW,239,2.0,4.0,41,0.00,,,0.00,weatherlink.com 1.10,2013-04-22 15:49:00,
2013-04-22 12:04:00,61.3,37.0,30.39,South,180,1.0,5.0,40,0.00,,,0.00,weatherlink.com 1.10,2013-04-22 16:04:00,
2013-04-22 12:20:00,62.7,37.0,30.38,South,190,0.0,4.0,39,0.00,,,0.00,weatherlink.com 1.10,2013-04-22 16:20:00,
2013-04-22 12:35:00,63.5,37.0,30.37,NNE,16,1.0,2.0,37,0.00,,,0.00,weatherlink.com 1.10,2013-04-22 16:35:00,
2013-04-22 12:50:00,64.3,36.0,30.36,North,1,0.0,2.0,35,0.00,,,0.00,weatherlink.com 1.10,2013-04-22 16:50:00,
2013-04-22 13:05:00,64.8,38.0,30.35,SSW,211,3.0,4.0,37,0.00,,,0.00,weatherlink.com 1.10,2013-04-22 17:05:00,
2013-04-22 13:20:00,64.5,36.0,30.35,NNE,19,1.0,4.0,35,0.00,,,0.00,weatherlink.com 1.10,2013-04-22 17:20:00,
2013-04-22 13:35:00,65.2,35.0,30.33,West,270,1.0,5.0,33,0.00,,,0.00,weatherlink.com 1.10,2013-04-22 17:35:00,
2013-04-22 13:50:00,66.1,37.0,30.33,WNW,286,2.0,2.0,34,0.00,,,0.00,weatherlink.com 1.10,2013-04-22 17:50:00,
2013-04-22 14:05:00,66.3,35.0,30.33,West,262,0.0,3.0,31,0.00,,,0.00,weatherlink.com 1.10,2013-04-22 18:05:00,
2013-04-22 14:20:00,67.4,35.0,30.32,SSW,200,3.0,4.0,30,0.00,,,0.00,weatherlink.com 1.10,2013-04-22 18:20:00,
2013-04-22 14:35:00,66.9,36.0,30.32,SW,219,1.0,3.0,32,0.00,,,0.00,weatherlink.com 1.10,2013-04-22 18:35:00,
2013-04-22 14:50:00,67.4,36.0,30.32,SSW,197,3.0,3.0,31,0.00,,,0.00,weatherlink.com 1.10,2013-04-22 18:50:00,
2013-04-22 15:05:00,66.3,34.0,30.31,WNW,301,0.0,4.0,30,0.00,,,0.00,weatherlink.com 1.10,2013-04-22 19:05:00,
2013-04-22 15:20:00,66.5,34.0,30.31,SSW,196,0.0,5.0,30,0.00,,,0.00,weatherlink.com 1.10,2013-04-22 19:20:00,
2013-04-22 15:35:00,66.0,34.0,30.30,SSW,208,1.0,4.0,31,0.00,,,0.00,weatherlink.com 1.10,2013-04-22 19:35:00,
2013-04-22 15:50:00,66.3,34.0,30.29,SSW,198,0.0,5.0,30,0.00,,,0.00,weatherlink.com 1.10,2013-04-22 19:50:00,
2013-04-22 16:05:00,66.2,32.0,30.28,North,3,0.0,5.0,28,0.00,,,0.00,weatherlink.com 1.10,2013-04-22 20:05:00,
2013-04-22 16:20:00,66.5,33.0,30.27,West,263,1.0,4.0,29,0.00,,,0.00,weatherlink.com 1.10,2013-04-22 20:20:00,
2013-04-22 16:35:00,66.2,35.0,30.26,SSW,196,2.0,9.0,31,0.00,,,0.00,weatherlink.com 1.10,2013-04-22 20:35:00,
2013-04-22 16:50:00,66.0,32.0,30.25,SE,145,0.0,5.0,28,0.00,,,0.00,weatherlink.com 1.10,2013-04-22 20:50:00,
2013-04-22 17:05:00,66.3,33.0,30.24,SSE,166,1.0,8.0,29,0.00,,,0.00,weatherlink.com 1.10,2013-04-22 21:05:00,
2013-04-22 17:20:00,67.2,34.0,30.23,SSE,152,2.0,5.0,29,0.00,,,0.00,weatherlink.com 1.10,2013-04-22 21:20:00,
2013-04-22 17:35:00,66.7,33.0,30.22,South,174,1.0,4.0,29,0.00,,,0.00,weatherlink.com 1.10,2013-04-22 21:35:00,
2013-04-22 17:50:00,66.2,33.0,30.21,SE,136,3.0,4.0,29,0.00,,,0.00,weatherlink.com 1.10,2013-04-22 21:50:00,
2013-04-22 18:05:00,65.0,34.0,30.21,SSW,207,2.0,5.0,32,0.00,,,0.00,weatherlink.com 1.10,2013-04-22 22:05:00,
2013-04-22 18:20:00,64.7,33.0,30.21,SSW,201,2.0,6.0,31,0.00,,,0.00,weatherlink.com 1.10,2013-04-22 22:20:00,
2013-04-22 18:35:00,64.5,33.0,30.21,SW,225,1.0,4.0,31,0.00,,,0.00,weatherlink.com 1.10,2013-04-22 22:35:00,
2013-04-22 18:50:00,64.7,34.0,30.21,NNW,330,0.0,3.0,32,0.00,,,0.00,weatherlink.com 1.10,2013-04-22 22:50:00,
2013-04-22 19:06:00,64.3,34.0,30.20,South,176,2.0,5.0,32,0.00,,,0.00,weatherlink.com 1.10,2013-04-22 23:06:00,
2013-04-22 19:21:00,63.6,34.0,30.19,SSW,212,2.0,4.0,33,0.00,,,0.00,weatherlink.com 1.10,2013-04-22 23:21:00,
2013-04-22 19:36:00,63.2,33.0,30.19,NNE,32,3.0,6.0,33,0.00,,,0.00,weatherlink.com 1.10,2013-04-22 23:36:00,
2013-04-22 19:51:00,62.1,34.0,30.19,South,184,1.0,5.0,35,0.00,,,0.00,weatherlink.com 1.10,2013-04-22 23:51:00,
2013-04-22 20:21:00,60.2,35.0,30.19,SSE,156,0.0,5.0,39,0.00,,,0.00,weatherlink.com 1.10,2013-04-23 00:21:00,
2013-04-22 20:36:00,59.3,35.0,30.18,SE,146,0.0,4.0,40,0.00,,,0.00,weatherlink.com 1.10,2013-04-23 00:36:00,
2013-04-22 20:51:00,58.1,35.0,30.19,SSW,198,0.0,1.0,43,0.00,,,0.00,weatherlink.com 1.10,2013-04-23 00:51:00,
2013-04-22 21:06:00,56.7,36.0,30.19,SSW,198,0.0,0.0,46,0.00,,,0.00,weatherlink.com 1.10,2013-04-23 01:06:00,
2013-04-22 21:21:00,55.4,36.0,30.19,SSW,199,0.0,0.0,48,0.00,,,0.00,weatherlink.com 1.10,2013-04-23 01:21:00,
2013-04-22 21:36:00,54.2,36.0,30.20,SSW,198,0.0,0.0,50,0.00,,,0.00,weatherlink.com 1.10,2013-04-23 01:36:00,
2013-04-22 21:51:00,53.5,37.0,30.19,SSW,199,0.0,0.0,53,0.00,,,0.00,weatherlink.com 1.10,2013-04-23 01:51:00,
2013-04-22 22:06:00,52.7,37.0,30.19,SSW,198,0.0,0.0,55,0.00,,,0.00,weatherlink.com 1.10,2013-04-23 02:06:00,
2013-04-22 22:21:00,52.2,37.0,30.19,SSW,198,0.0,0.0,56,0.00,,,0.00,weatherlink.com 1.10,2013-04-23 02:21:00,
2013-04-22 22:36:00,51.8,37.0,30.19,SSW,199,0.0,0.0,57,0.00,,,0.00,weatherlink.com 1.10,2013-04-23 02:36:00,
2013-04-22 22:51:00,51.2,37.0,30.19,SSW,199,0.0,0.0,58,0.00,,,0.00,weatherlink.com 1.10,2013-04-23 02:51:00,
2013-04-22 23:06:00,50.9,37.0,30.19,SSW,198,0.0,0.0,59,0.00,,,0.00,weatherlink.com 1.10,2013-04-23 03:06:00,
2013-04-22 23:21:00,50.3,37.0,30.19,SSW,198,0.0,0.0,60,0.00,,,0.00,weatherlink.com 1.10,2013-04-23 03:21:00,
2013-04-22 23:36:00,49.7,37.0,30.18,SSE,155,0.0,1.0,61,0.00,,,0.00,weatherlink.com 1.10,2013-04-23 03:36:00,
2013-04-22 23:51:00,49.6,37.0,30.18,SSW,207,0.0,0.0,62,0.00,,,0.00,weatherlink.com 1.10,2013-04-23 03:51:00,